This is the latest recevied weather packets stored in our database for station/object KN6DHD. If no packets are shown the sender has not sent any weather packets the latest 10 day(s).
| Time | Temp. | Humidity | Pressure | Rain* | Wind** | Luminosity | Snow |
|---|---|---|---|---|---|---|---|
| 1777570969 | 19.44° C | 66% | 1014.8 hPa | 0 mm | - | 48 W/m² | - |
| 1777570665 | 18.89° C | 67% | 1014.9 hPa | 0 mm | - | 48 W/m² | - |
| 1777570362 | 18.89° C | 68% | 1015.2 hPa | 0 mm | - | 50 W/m² | - |
| 1777570057 | 18.89° C | 68% | 1015.2 hPa | 0 mm | - | 51 W/m² | - |
| 1777569753 | 18.33° C | 70% | 1015.2 hPa | 0 mm | - | 145 W/m² | - |
| 1777569449 | 18.33° C | 69% | 1015.1 hPa | 0 mm | - | 47 W/m² | - |
| 1777569146 | 18.33° C | 71% | 1014.9 hPa | 0 mm | - | 46 W/m² | - |
| 1777568843 | 17.78° C | 73% | 1015.2 hPa | 0 mm | - | 46 W/m² | - |
| 1777568540 | 17.78° C | 73% | 1015 hPa | 0 mm | - | 46 W/m² | - |
| 1777568236 | 17.22° C | 74% | 1015.1 hPa | 0 mm | - | 46 W/m² | - |
| 1777567934 | 17.22° C | 74% | 1015.3 hPa | 0 mm | - | 45 W/m² | - |
| 1777567630 | 17.22° C | 74% | 1015.3 hPa | 0 mm | - | 45 W/m² | - |
| 1777567327 | 16.67° C | 76% | 1015.1 hPa | 0 mm | - | 44 W/m² | - |
| 1777567025 | 16.67° C | 76% | 1015 hPa | 0 mm | - | 44 W/m² | - |
| 1777566723 | 16.11° C | 76% | 1015.1 hPa | 0 mm | - | 44 W/m² | - |
| 1777566421 | 16.11° C | 77% | 1015.2 hPa | 0 mm | - | 43 W/m² | - |
| 1777566118 | 16.11° C | 77% | 1015 hPa | 0 mm | - | 44 W/m² | - |
| 1777565813 | 15.56° C | 77% | 1015 hPa | 0 mm | - | 44 W/m² | - |
| 1777565509 | 15.56° C | 77% | 1015.1 hPa | 0 mm | - | 43 W/m² | - |
| 1777565205 | 15.56° C | 79% | 1015.1 hPa | 0 mm | - | 168 W/m² | - |
| 1777564902 | 15° C | 78% | 1015.1 hPa | 0 mm | - | 63 W/m² | - |
| 1777564597 | 15° C | 79% | 1015.1 hPa | 0 mm | - | 42 W/m² | - |
| 1777564293 | 15° C | 79% | 1015.2 hPa | 0 mm | - | 41 W/m² | - |
| 1777563989 | 15° C | 78% | 1015.2 hPa | 0 mm | - | 42 W/m² | - |
| 1777563686 | 15° C | 79% | 1015.2 hPa | 0 mm | - | 83 W/m² | - |
* Rain latest hour (hover to see other rain measurements)
** Current wind speed in m/s (hover to see current wind gust speed)